FW0386 Weather Reports


time (UTC)temp
F
wind
direction
speed
knots
gust
knots
rain 1hr
in
rain 24hr
in
rain mn
in
humidity
%
barometer
mb
20260503233019 46 110 0.0 0.0 0.00 0.00 0.00 78 1015.2
20260503231508 47 110 0.0 0.0 0.00 0.00 0.00 78 1015.2
20260503230019 47 110 0.0 0.0 0.00 0.00 0.00 77 1015.3
20260503224525 48 110 0.0 0.0 0.00 0.00 0.00 77 1015.4
20260503223044 48 110 0.0 0.0 0.00 0.00 0.00 76 1015.4
20260503221601 49 110 0.0 0.0 0.00 0.00 0.00 76 1015.5
20260503220026 49 110 0.0 0.0 0.00 0.00 0.00 76 1015.5
20260503214526 50 110 0.0 0.0 0.00 0.00 0.00 74 1015.6
20260503213054 51 110 0.0 0.0 0.00 0.00 0.00 74 1015.5
20260503211613 52 110 0.0 0.0 0.00 0.00 0.00 72 1015.6
20260503210020 53 110 0.0 0.0 0.00 0.00 0.00 69 1015.5
20260503204539 55 110 0.0 0.9 0.00 0.00 0.00 66 1015.6
20260503203045 56 103 0.0 3.5 0.00 0.00 0.00 64 1015.6
20260503201525 56 124 0.0 0.9 0.00 0.00 0.00 64 1015.8
20260503200033 57 124 0.0 1.7 0.00 0.00 0.00 62 1015.8
20260503194548 58 125 0.0 0.9 0.00 0.00 0.00 61 1015.8
20260503193008 59 128 0.0 1.7 0.00 0.00 0.00 59 1015.7
20260503191527 59 110 0.0 0.9 0.00 0.00 0.00 57 1015.7
20260503190036 61 124 0.9 3.5 0.00 0.00 0.00 54 1015.7
20260503184538 62 117 0.9 4.3 0.00 0.00 0.00 53 1015.7
20260503183054 63 89 0.9 6.1 0.00 0.00 0.00 50 1015.6
20260503181521 64 94 0.9 5.2 0.00 0.00 0.00 48 1015.4
20260503180018 65 93 2.6 6.1 0.00 0.00 0.00 46 1015.2
20260503174536 66 185 2.6 7.0 0.00 0.00 0.00 45 1015.3
20260503173045 68 108 2.6 8.7 0.00 0.00 0.00 44 1015.3
20260503171553 69 120 2.6 7.8 0.00 0.00 0.00 42 1015.3
20260503120108 70 103 5.2 17.4 0.00 0.00 0.00 45 1017.5
20260503081537 62 79 3.5 10.4 0.00 0.00 0.00 54 1019.7
20260503071521 58 94 1.7 5.2 0.00 0.00 0.00 62 1019.6
20260503054533 51 91 0.0 1.7 0.00 0.00 0.00 69 1019.2
20260503053051 48 94 0.0 1.7 0.00 0.00 0.00 72 1019.4
20260503051502 45 176 0.0 0.9 0.00 0.00 0.00 77 1019.4
20260503050036 42 86 0.0 0.0 0.00 0.00 0.00 83 1019.3
20260503044612 38 86 0.0 0.0 0.00 0.00 0.00 88 1019.1
20260503043011 36 86 0.0 0.0 0.00 0.00 0.00 88 1019.2
20260503041521 35 86 0.0 1.7 0.00 0.00 0.00 89 1019.4
20260503040036 35 281 0.0 0.0 0.00 0.00 0.00 89 1019.2
20260503034543 35 281 0.0 0.0 0.00 0.00 0.00 89 1019.2
20260503033111 35 281 0.0 0.0 0.00 0.00 0.00 89 1019.2
20260503031501 35 281 0.0 0.0 0.00 0.00 0.00 88 1019.0
20260503030022 36 281 0.0 0.9 0.00 0.00 0.00 87 1019.1
20260503024548 37 281 0.0 0.0 0.00 0.00 0.00 88 1018.9
20260503023101 37 281 0.0 0.0 0.00 0.00 0.00 88 1019.1
20260503021555 37 281 0.0 0.0 0.00 0.00 0.00 88 1019.1
20260503020031 37 281 0.0 0.0 0.00 0.00 0.00 88 1019.1
20260503014513 37 281 0.0 0.0 0.00 0.00 0.00 88 1019.1
20260503013045 37 281 0.0 0.0 0.00 0.00 0.00 85 1019.2
20260503011548 38 281 0.0 0.0 0.00 0.00 0.00 84 1019.1
20260503010050 39 281 0.0 0.0 0.00 0.00 0.00 85 1019.2
20260503004518 40 281 0.0 0.0 0.00 0.00 0.00 84 1019.3
20260503003027 40 281 0.0 0.0 0.00 0.00 0.00 84 1019.4
20260503001534 40 281 0.0 0.0 0.00 0.00 0.00 84 1019.5
20260503000050 41 281 0.0 0.0 0.00 0.00 0.00 82 1019.5
20260502234506 42 281 0.0 0.0 0.00 0.00 0.00 79 1019.6